Regional Weather Roundup
Issued by NWS

Home | Current Version | Previous Version | Graphics & Text | Print | Product List | Glossary On
Versions: 1 2 3 4 5 6 7 8 9 10 11 12 13 14 15 16 17 18 19 20 21 22 23 24 25 26 27 28 29 30 31 32 33 34 35 36 37 38 39 40 41 42 43 44 45 46 47 48 49 50
000
ASUS45 KCYS 231510
RWRWY

WYOMING REGIONAL WEATHER ROUNDUP
NATIONAL WEATHER SERVICE CHEYENNE WY
900 AM MDT MON OCT 23 2017

NOTE:  "FAIR" INDICATES FEW OR NO CLOUDS BELOW 12,000 FEET
WITH NO SIGNIFICANT WEATHER AND/OR OBSTRUCTIONS TO VISIBILITY.

WYZ001-231600-
YELLOWSTONE NATIONAL PARK

CITY           SKY/WX    TMP DP  RH WIND       PRES   REMARKS
LK YELLOWSTONE   N/A     29  21  72 W9        30.54R WCI  20
W YELLOWSTONE  NOT AVBL

$$
WYZ002>013-054>058-071-098>099-231600-
NORTHERN WYOMING

CITY           SKY/WX    TMP DP  RH WIND       PRES   REMARKS
JACKSON        FAIR      35  25  66 N5        30.55R WCI  31
CODY           FAIR      47  18  31 W7        30.46R
GREYBULL       PTSUNNY   48  22  35 NW7       30.42R
WORLAND        FAIR      37  27  67 SW6       30.44R WCI  32
SHERIDAN       FAIR      44  25  47 NW13      30.40R
BUFFALO        FAIR      47  16  29 NW21G32   30.39R
GILLETTE       FAIR      44  23  43 NW21G29   30.37R
HULETT         FAIR      45  23  42 NW12G20   30.34R
NEWCASTLE      FAIR      41  21  45 NW15      30.35R

$$
WYZ014>020-022>026-101>103-231600-
CENTRAL WYOMING

CITY           SKY/WX    TMP DP  RH WIND       PRES   REMARKS
BIG PINEY      FAIR      39  28  64 E10       30.51R WCI  32
PINEDALE       FAIR      37  25  60 NW12      30.50R WCI  30
DUBOIS         FAIR      34  19  55 NW25G31   30.46S WCI  21
LANDER         FAIR      43  25  49 N6        30.44R
RIVERTON       FAIR      41  26  55 SW6       30.45R
CASPER         FAIR      45  18  34 W12       30.43R
DOUGLAS        PTSUNNY   41  27  57 NW9       30.42R

$$
WYZ021-027>030-104>119-231600-
SOUTHERN WYOMING

CITY           SKY/WX    TMP DP  RH WIND       PRES   REMARKS
EVANSTON       FAIR      43  31  62 W15       30.56R
KEMMERER       FAIR      41  30  65 W6        30.54R
FORT BRIDGER   FAIR      44  33  64 W24G32    30.54F
ROCK SPRINGS   FAIR      44  31  60 W18       30.51R
DIXON          FAIR      46  32  57 SW5       30.54R
RAWLINS        PTSUNNY   42  28  57 W9        30.46R
SARATOGA       CLOUDY    45  32  61 W12       30.48R
LARAMIE        CLOUDY    37  27  67 N17       30.42R WCI  27
CHEYENNE       FLURRIES  35  28  75 N13G20    30.42R WCI  26
TORRINGTON     FAIR      48  20  32 NW15G25   30.37R
PINE BLUFFS    CLOUDY    37  32  81 MISG      30.41R

$$



USA.gov is the U.S. government's official web portal to all federal, state and local government web resources and services.